Decimomannu Airport LIED

Flugplatz Daten

Name: Decimomannu Airport

Ident: LIED

Lat: 39,35419846

Long: 8,97247982

Platzhöhe: 100 ft

IataCode: DCI

City: Decimomannu

Metar

2021/12/03 22:55
LIED 032255Z 01004KT 9999 FEW040 06/05 Q1015 RMK FEW VIS MIN 9999 WIND THR35 36002KT WIND THR17 36003KT BLU

Taf

2021/01/17 03:30
TAF TAF LIED 170500Z 1703/1715 03003KT 9999 FEW020 SCT040
TEMPO 1706/1710 RA SCT020 BKN060
BECMG 1708/1710 33018KT
TEMPO 1710/1715 33025G35KT
TEMPO 1713/1715 RA
Gewünschte Webcam nicht vorhanden? Dann fügen Sie eine hinzu. Sie wird dann so schnell wie möglich freigeschaltet
Url: Title: